Language: 


Des rapports , des résumés tant et plus, au choix de chacun....


Données Historiques de Météogheer
Journalier Rapport pour Janvier 25, 2018 Unitée:  Métrique    Impériale   Les deux
Suivant Jour »
Journalier Hebdomadaire Mensuel Annuel Sur mesure
  Max: Min: Moyenne:
Température: 10.4 °C 5.8 °C 8.2 °C
Point de rosée: 9.0 °C 6.0 °C 7.7 °C
Humidité: 98% 85% 95%
Vent: 16.3km/h 0.0km/h 7km/h
Rafales: 20.9km/h - -
Vent- - SSW
Pression: 1012.1 hPa 1009.0 hPa -
Pluie: 0.3 mm    
Historical Graphs
 
 
Données tabulaires pour Janvier 25, 2018
Heure Température Point de rosée Pression Vent Vent Rafales Humidité Pluie Taux (Horaire) Conditions
00:01 7.9 °C 8.0 °C 1011.1 hPa SW 13.7 km/h 19.5 km/h 98% 0.0 mm
00:06 7.9 °C 8.0 °C 1011.1 hPa SW 16.3 km/h 19.5 km/h 98% 0.0 mm
00:11 7.9 °C 8.0 °C 1011.1 hPa SW 13.0 km/h 17.2 km/h 98% 0.0 mm
00:16 7.9 °C 8.0 °C 1010.0 hPa SSW 14.0 km/h 17.2 km/h 98% 0.0 mm
00:21 7.9 °C 8.0 °C 1010.0 hPa SW 7.9 km/h 16.6 km/h 98% 0.0 mm
00:26 7.9 °C 8.0 °C 1010.0 hPa SSW 8.7 km/h 16.6 km/h 98% 0.0 mm
00:31 7.9 °C 8.0 °C 1011.1 hPa SSW 10.5 km/h 16.6 km/h 98% 0.0 mm
00:36 7.9 °C 8.0 °C 1011.1 hPa SW 11.6 km/h 16.6 km/h 98% 0.0 mm
00:41 8.0 °C 8.0 °C 1011.1 hPa SW 7.9 km/h 16.9 km/h 98% 0.0 mm
00:46 7.9 °C 8.0 °C 1010.0 hPa SW 8.7 km/h 16.9 km/h 98% 0.0 mm
00:51 8.0 °C 8.0 °C 1010.0 hPa WSW 11.9 km/h 16.6 km/h 98% 0.0 mm
00:56 8.0 °C 8.0 °C 1010.0 hPa SSW 12.2 km/h 16.6 km/h 98% 0.0 mm
01:01 8.0 °C 8.0 °C 1011.1 hPa SSW 11.9 km/h 15.4 km/h 98% 0.0 mm
01:06 8.0 °C 8.0 °C 1011.1 hPa SW 9.7 km/h 16.3 km/h 98% 0.0 mm
01:11 8.0 °C 8.0 °C 1011.1 hPa SSW 10.1 km/h 16.3 km/h 98% 0.0 mm
01:16 8.0 °C 8.0 °C 1011.1 hPa SW 12.2 km/h 16.3 km/h 98% 0.0 mm
01:21 8.0 °C 8.0 °C 1011.1 hPa SSW 9.0 km/h 16.3 km/h 98% 0.0 mm
01:26 8.1 °C 8.0 °C 1011.1 hPa SW 14.0 km/h 17.2 km/h 98% 0.0 mm
01:31 8.1 °C 8.0 °C 1011.1 hPa SSW 10.5 km/h 20.9 km/h 98% 0.0 mm
01:36 8.1 °C 8.0 °C 1011.1 hPa SSW 12.2 km/h 20.9 km/h 98% 0.0 mm
01:41 8.1 °C 8.0 °C 1011.1 hPa WSW 14.0 km/h 16.9 km/h 98% 0.0 mm
01:46 8.1 °C 8.0 °C 1011.1 hPa SW 10.1 km/h 16.3 km/h 98% 0.0 mm
01:51 8.0 °C 8.0 °C 1011.1 hPa WSW 10.5 km/h 16.3 km/h 98% 0.0 mm
01:57 8.0 °C 8.0 °C 1011.1 hPa SSW 10.5 km/h 13.0 km/h 98% 0.0 mm
02:02 8.0 °C 8.0 °C 1011.1 hPa SSW 7.9 km/h 13.0 km/h 98% 0.0 mm
02:07 8.0 °C 8.0 °C 1011.1 hPa SW 10.1 km/h 13.0 km/h 98% 0.0 mm
02:12 8.1 °C 8.0 °C 1011.1 hPa SW 9.3 km/h 12.6 km/h 98% 0.0 mm
02:17 8.1 °C 8.0 °C 1011.1 hPa SW 9.3 km/h 16.3 km/h 98% 0.0 mm
02:22 8.2 °C 8.0 °C 1011.1 hPa SSW 13.7 km/h 16.3 km/h 98% 0.0 mm
02:27 8.2 °C 8.0 °C 1011.1 hPa SSW 11.6 km/h 15.4 km/h 98% 0.0 mm
02:32 8.2 °C 8.0 °C 1011.1 hPa SW 10.1 km/h 15.4 km/h 98% 0.0 mm
02:37 8.2 °C 8.0 °C 1011.1 hPa SW 9.7 km/h 15.4 km/h 98% 0.0 mm
02:42 8.1 °C 8.0 °C 1011.1 hPa SW 10.1 km/h 16.3 km/h 98% 0.0 mm
02:47 8.1 °C 8.0 °C 1011.1 hPa SSW 11.1 km/h 16.3 km/h 98% 0.0 mm
02:52 8.1 °C 8.0 °C 1011.1 hPa SW 13.0 km/h 17.2 km/h 98% 0.0 mm
02:57 8.1 °C 8.0 °C 1011.1 hPa SSW 12.2 km/h 17.2 km/h 98% 0.0 mm
03:02 8.0 °C 8.0 °C 1011.1 hPa WSW 13.0 km/h 13.7 km/h 98% 0.0 mm
03:07 8.0 °C 8.0 °C 1011.1 hPa WSW 9.0 km/h 15.8 km/h 98% 0.0 mm
03:12 7.9 °C 8.0 °C 1011.1 hPa SW 9.3 km/h 15.8 km/h 98% 0.0 mm
03:17 7.9 °C 8.0 °C 1011.1 hPa SW 7.9 km/h 13.7 km/h 98% 0.0 mm
03:22 7.9 °C 8.0 °C 1011.1 hPa SW 8.7 km/h 14.0 km/h 98% 0.0 mm
03:27 7.8 °C 8.0 °C 1011.1 hPa SW 9.0 km/h 14.0 km/h 98% 0.0 mm
03:32 7.8 °C 8.0 °C 1011.1 hPa SSW 10.1 km/h 12.6 km/h 98% 0.0 mm
03:37 7.8 °C 8.0 °C 1011.1 hPa SSW 9.0 km/h 14.0 km/h 98% 0.0 mm
03:42 7.8 °C 8.0 °C 1011.1 hPa SSW 9.7 km/h 15.8 km/h 98% 0.0 mm
03:47 7.8 °C 8.0 °C 1011.1 hPa SSW 14.0 km/h 16.6 km/h 98% 0.0 mm
03:52 7.8 °C 8.0 °C 1011.1 hPa SW 13.7 km/h 16.6 km/h 98% 0.0 mm
03:57 7.8 °C 8.0 °C 1011.1 hPa WSW 11.9 km/h 17.2 km/h 98% 0.0 mm
04:02 7.8 °C 8.0 °C 1011.1 hPa SSW 13.7 km/h 17.2 km/h 98% 0.0 mm
04:07 7.8 °C 8.0 °C 1011.1 hPa SSW 9.3 km/h 16.3 km/h 98% 0.0 mm
04:12 7.8 °C 8.0 °C 1011.1 hPa SSW 11.1 km/h 13.7 km/h 98% 0.0 mm
04:17 7.8 °C 8.0 °C 1011.1 hPa SSW 13.7 km/h 13.7 km/h 98% 0.0 mm
04:22 7.8 °C 8.0 °C 1011.1 hPa SSW 5.5 km/h 13.7 km/h 98% 0.0 mm
04:27 7.8 °C 8.0 °C 1011.1 hPa SSW 10.1 km/h 15.8 km/h 98% 0.0 mm
04:33 7.9 °C 8.0 °C 1011.1 hPa SSW 11.9 km/h 15.8 km/h 98% 0.0 mm
04:38 8.0 °C 8.0 °C 1011.1 hPa SSW 8.7 km/h 14.0 km/h 98% 0.3 mm
04:43 8.0 °C 8.0 °C 1011.1 hPa SW 6.1 km/h 13.7 km/h 98% 0.3 mm
04:48 7.9 °C 8.0 °C 1011.1 hPa SSW 9.3 km/h 12.2 km/h 98% 0.3 mm
04:53 7.9 °C 8.0 °C 1011.1 hPa SSW 7.9 km/h 10.5 km/h 98% 0.3 mm
04:58 7.9 °C 8.0 °C 1011.1 hPa SSW 12.2 km/h 14.0 km/h 98% 0.3 mm
05:03 7.9 °C 8.0 °C 1010.0 hPa SSW 7.9 km/h 14.0 km/h 98% 0.3 mm
05:08 7.9 °C 8.0 °C 1010.0 hPa SSW 8.7 km/h 12.6 km/h 98% 0.3 mm
05:13 8.0 °C 8.0 °C 1010.0 hPa SW 9.3 km/h 11.9 km/h 98% 0.3 mm
05:18 7.9 °C 8.0 °C 1011.1 hPa SSW 13.7 km/h 13.7 km/h 98% 0.3 mm
05:23 7.9 °C 8.0 °C 1011.1 hPa South 12.2 km/h 15.8 km/h 98% 0.3 mm
05:28 7.9 °C 8.0 °C 1011.1 hPa SSW 7.6 km/h 15.8 km/h 98% 0.3 mm
05:33 7.9 °C 8.0 °C 1011.1 hPa SW 6.4 km/h 12.6 km/h 98% 0.3 mm
05:38 7.9 °C 8.0 °C 1011.1 hPa SSW 8.7 km/h 11.6 km/h 98% 0.0 mm
05:43 8.0 °C 8.0 °C 1011.1 hPa SW 9.7 km/h 11.6 km/h 98% 0.0 mm
05:48 8.0 °C 8.0 °C 1011.1 hPa SSW 5.5 km/h 10.5 km/h 98% 0.0 mm
05:53 8.0 °C 8.0 °C 1011.1 hPa SSW 8.7 km/h 10.5 km/h 98% 0.0 mm
05:58 8.0 °C 8.0 °C 1011.1 hPa SW 10.1 km/h 10.1 km/h 98% 0.0 mm
06:03 8.0 °C 8.0 °C 1011.1 hPa SW 9.7 km/h 11.9 km/h 98% 0.0 mm
06:08 8.0 °C 8.0 °C 1011.1 hPa SSW 8.7 km/h 12.2 km/h 98% 0.0 mm
06:13 8.0 °C 8.0 °C 1011.1 hPa SSW 5.8 km/h 12.2 km/h 98% 0.0 mm
06:18 8.0 °C 8.0 °C 1011.1 hPa SSW 12.6 km/h 13.0 km/h 98% 0.0 mm
06:23 8.0 °C 8.0 °C 1011.1 hPa SW 8.7 km/h 14.0 km/h 98% 0.0 mm
06:28 8.0 °C 8.0 °C 1011.1 hPa SSW 10.5 km/h 14.0 km/h 98% 0.0 mm
06:33 8.0 °C 8.0 °C 1011.1 hPa SSW 9.7 km/h 10.5 km/h 98% 0.0 mm
06:38 7.9 °C 8.0 °C 1011.1 hPa SSW 11.9 km/h 11.9 km/h 98% 0.0 mm
06:43 7.9 °C 8.0 °C 1011.1 hPa SSW 6.9 km/h 11.9 km/h 98% 0.0 mm
06:48 7.8 °C 8.0 °C 1011.1 hPa SSW 5.5 km/h 11.9 km/h 98% 0.0 mm
06:53 7.8 °C 8.0 °C 1011.1 hPa SSW 4.3 km/h 9.3 km/h 98% 0.0 mm
06:58 7.8 °C 8.0 °C 1011.1 hPa SSW 6.9 km/h 9.7 km/h 98% 0.0 mm
07:04 7.9 °C 8.0 °C 1011.1 hPa SSW 6.4 km/h 9.7 km/h 98% 0.0 mm
07:09 7.9 °C 8.0 °C 1011.1 hPa SSW 5.0 km/h 9.7 km/h 98% 0.0 mm
07:14 7.9 °C 8.0 °C 1011.1 hPa SSW 10.1 km/h 10.1 km/h 98% 0.0 mm
07:19 8.0 °C 8.0 °C 1011.1 hPa South 3.5 km/h 10.1 km/h 98% 0.0 mm
07:24 8.0 °C 8.0 °C 1011.1 hPa Calm   10.1 km/h 98% 0.0 mm
07:29 8.0 °C 8.0 °C 1011.1 hPa South 5.0 km/h 7.9 km/h 98% 0.0 mm
07:31 8.0 °C 8.0 °C 1011.1 hPa Calm   7.9 km/h 98% 0.0 mm
07:36 7.9 °C 8.0 °C 1011.1 hPa South 4.0 km/h 6.9 km/h 98% 0.0 mm
07:41 7.9 °C 8.0 °C 1011.1 hPa Calm   7.6 km/h 98% 0.0 mm
07:46 7.8 °C 8.0 °C 1011.1 hPa South 3.5 km/h 8.7 km/h 98% 0.0 mm
07:51 7.7 °C 8.0 °C 1011.1 hPa SSW 6.4 km/h 8.7 km/h 98% 0.0 mm
07:56 7.7 °C 8.0 °C 1011.1 hPa SSW 6.4 km/h 7.9 km/h 98% 0.0 mm
08:01 7.6 °C 8.0 °C 1011.1 hPa Calm   7.9 km/h 98% 0.0 mm
08:06 7.6 °C 8.0 °C 1011.1 hPa SSW 5.0 km/h 12.6 km/h 98% 0.0 mm
08:11 7.5 °C 8.0 °C 1011.1 hPa South 9.3 km/h 12.6 km/h 98% 0.0 mm
08:17 7.5 °C 8.0 °C 1011.1 hPa SSW 5.0 km/h 11.9 km/h 98% 0.0 mm
08:22 7.5 °C 8.0 °C 1011.1 hPa South 6.9 km/h 11.9 km/h 98% 0.0 mm
08:27 7.4 °C 7.0 °C 1011.1 hPa SSW 8.7 km/h 11.9 km/h 98% 0.0 mm
08:32 7.4 °C 7.0 °C 1010.0 hPa South 6.1 km/h 11.9 km/h 98% 0.0 mm
08:37 7.4 °C 7.0 °C 1010.0 hPa Calm   8.7 km/h 98% 0.0 mm
08:42 7.4 °C 7.0 °C 1010.0 hPa Calm   8.7 km/h 98% 0.0 mm
08:47 7.4 °C 7.0 °C 1011.1 hPa South 4.3 km/h 8.7 km/h 98% 0.0 mm
08:52 7.4 °C 7.0 °C 1011.1 hPa Calm   7.9 km/h 98% 0.0 mm
08:57 7.4 °C 7.0 °C 1011.1 hPa SSW 9.3 km/h 11.9 km/h 98% 0.0 mm
09:02 7.5 °C 8.0 °C 1011.1 hPa South 9.0 km/h 11.9 km/h 98% 0.0 mm
09:07 7.6 °C 8.0 °C 1011.1 hPa SSW 8.7 km/h 13.0 km/h 98% 0.0 mm
09:12 7.7 °C 8.0 °C 1011.1 hPa SSW 5.5 km/h 13.0 km/h 98% 0.0 mm
09:17 7.7 °C 8.0 °C 1011.1 hPa SW 5.5 km/h 13.0 km/h 98% 0.0 mm
09:22 7.8 °C 8.0 °C 1011.1 hPa SSW 7.9 km/h 16.6 km/h 98% 0.0 mm
09:27 7.9 °C 8.0 °C 1011.1 hPa SSW 9.7 km/h 16.6 km/h 98% 0.0 mm
09:32 7.9 °C 8.0 °C 1011.1 hPa SSW 9.0 km/h 14.0 km/h 98% 0.0 mm
09:37 7.9 °C 8.0 °C 1011.1 hPa SSW 6.4 km/h 13.7 km/h 98% 0.0 mm
09:42 7.9 °C 8.0 °C 1011.1 hPa SSW 9.0 km/h 13.7 km/h 98% 0.0 mm
09:47 8.0 °C 8.0 °C 1010.0 hPa SSW 10.5 km/h 14.0 km/h 98% 0.0 mm
09:52 8.0 °C 8.0 °C 1010.0 hPa South 6.9 km/h 14.0 km/h 98% 0.0 mm
09:57 8.1 °C 8.0 °C 1010.0 hPa SSW 8.7 km/h 12.6 km/h 98% 0.0 mm
10:02 8.2 °C 8.0 °C 1011.1 hPa SSW 9.0 km/h 16.6 km/h 98% 0.0 mm
10:07 8.2 °C 8.0 °C 1011.1 hPa SW 11.6 km/h 16.6 km/h 98% 0.0 mm
10:12 8.3 °C 9.0 °C 1011.1 hPa SW 10.5 km/h 14.0 km/h 98% 0.0 mm
10:17 8.4 °C 9.0 °C 1011.1 hPa SW 6.4 km/h 14.0 km/h 98% 0.0 mm
10:22 8.4 °C 9.0 °C 1011.1 hPa SSW 14.3 km/h 14.3 km/h 98% 0.0 mm
10:27 8.5 °C 9.0 °C 1011.1 hPa SSW 8.7 km/h 14.3 km/h 98% 0.0 mm
10:32 8.5 °C 9.0 °C 1010.0 hPa SW 10.1 km/h 13.0 km/h 98% 0.0 mm
10:37 8.5 °C 9.0 °C 1010.0 hPa SSW 9.3 km/h 13.0 km/h 98% 0.0 mm
10:42 8.6 °C 9.0 °C 1010.0 hPa SSW 8.7 km/h 10.1 km/h 98% 0.0 mm
10:47 8.6 °C 9.0 °C 1010.0 hPa South 6.1 km/h 10.1 km/h 98% 0.0 mm
10:53 8.7 °C 9.0 °C 1010.0 hPa SSW 9.0 km/h 10.1 km/h 98% 0.0 mm
10:58 8.7 °C 9.0 °C 1010.0 hPa SSW 6.9 km/h 10.8 km/h 98% 0.0 mm
11:03 8.8 °C 9.0 °C 1011.1 hPa SW 6.4 km/h 10.8 km/h 98% 0.0 mm
11:08 8.8 °C 9.0 °C 1011.1 hPa SSW 9.0 km/h 11.9 km/h 98% 0.0 mm
11:13 8.9 °C 9.0 °C 1011.1 hPa SSW 6.9 km/h 13.0 km/h 98% 0.0 mm
11:18 8.9 °C 9.0 °C 1010.0 hPa SW 9.0 km/h 13.0 km/h 98% 0.0 mm
11:23 9.0 °C 9.0 °C 1010.0 hPa SW 10.5 km/h 13.7 km/h 97% 0.0 mm
11:28 9.0 °C 9.0 °C 1010.0 hPa SSW 9.0 km/h 13.7 km/h 97% 0.0 mm
11:33 9.1 °C 9.0 °C 1011.1 hPa SSW 6.4 km/h 13.0 km/h 97% 0.0 mm
11:38 9.2 °C 9.0 °C 1011.1 hPa SSW 12.6 km/h 13.0 km/h 97% 0.0 mm
11:43 9.3 °C 9.0 °C 1010.0 hPa SSW 7.9 km/h 13.7 km/h 97% 0.0 mm
11:48 9.3 °C 9.0 °C 1010.0 hPa SSW 6.4 km/h 13.7 km/h 96% 0.0 mm
11:53 9.3 °C 9.0 °C 1010.0 hPa SW 13.7 km/h 15.8 km/h 96% 0.0 mm
11:58 9.4 °C 9.0 °C 1011.1 hPa WSW 8.7 km/h 18.0 km/h 96% 0.0 mm
12:03 9.5 °C 9.0 °C 1011.1 hPa SSW 9.7 km/h 18.0 km/h 95% 0.0 mm
12:08 9.6 °C 9.0 °C 1011.1 hPa SSW 10.5 km/h 17.2 km/h 95% 0.0 mm
12:13 9.8 °C 9.0 °C 1011.1 hPa SSW 8.7 km/h 17.2 km/h 95% 0.0 mm
12:18 9.8 °C 9.0 °C 1011.1 hPa SW 11.6 km/h 14.0 km/h 94% 0.0 mm
12:24 9.8 °C 9.0 °C 1011.1 hPa SW 12.2 km/h 16.6 km/h 94% 0.0 mm
12:29 9.9 °C 9.0 °C 1010.0 hPa SW 9.7 km/h 16.6 km/h 93% 0.0 mm
12:34 9.9 °C 9.0 °C 1010.0 hPa WSW 9.0 km/h 15.8 km/h 93% 0.0 mm
12:39 9.9 °C 9.0 °C 1010.0 hPa SSW 10.8 km/h 18.3 km/h 92% 0.0 mm
12:44 10.0 °C 9.0 °C 1011.1 hPa SSW 9.7 km/h 18.3 km/h 92% 0.0 mm
12:49 10.0 °C 9.0 °C 1011.1 hPa SSW 8.7 km/h 16.3 km/h 92% 0.0 mm
12:54 10.0 °C 9.0 °C 1011.1 hPa SSW 7.9 km/h 16.3 km/h 91% 0.0 mm
12:59 10.1 °C 9.0 °C 1010.0 hPa SW 8.7 km/h 14.8 km/h 91% 0.0 mm
13:04 10.1 °C 9.0 °C 1010.0 hPa SW 6.4 km/h 14.0 km/h 91% 0.0 mm
13:09 10.2 °C 9.0 °C 1010.0 hPa SW 12.2 km/h 14.0 km/h 90% 0.0 mm
13:14 10.2 °C 9.0 °C 1010.0 hPa SW 9.7 km/h 16.6 km/h 90% 0.0 mm
13:19 10.2 °C 9.0 °C 1010.0 hPa SW 10.5 km/h 16.6 km/h 90% 0.0 mm
13:24 10.3 °C 9.0 °C 1010.0 hPa SSW 12.6 km/h 15.8 km/h 89% 0.0 mm
13:29 10.3 °C 9.0 °C 1011.1 hPa SSW 11.1 km/h 15.8 km/h 89% 0.0 mm
13:34 10.3 °C 9.0 °C 1011.1 hPa WSW 10.5 km/h 15.8 km/h 88% 0.0 mm
13:39 10.3 °C 9.0 °C 1011.1 hPa SW 10.1 km/h 16.3 km/h 87% 0.0 mm
13:44 10.2 °C 9.0 °C 1010.0 hPa SW 15.4 km/h 16.9 km/h 87% 0.0 mm
13:49 10.2 °C 9.0 °C 1010.0 hPa SW 13.7 km/h 16.9 km/h 87% 0.0 mm
13:54 10.3 °C 9.0 °C 1010.0 hPa WSW 9.0 km/h 17.2 km/h 87% 0.0 mm
13:59 10.4 °C 9.0 °C 1010.0 hPa SSW 7.9 km/h 17.2 km/h 87% 0.0 mm
14:04 10.4 °C 8.0 °C 1010.0 hPa WSW 15.4 km/h 17.2 km/h 86% 0.0 mm
14:09 10.3 °C 8.0 °C 1010.0 hPa SW 10.1 km/h 17.2 km/h 86% 0.0 mm
14:14 10.4 °C 8.0 °C 1010.0 hPa WSW 9.3 km/h 15.8 km/h 86% 0.0 mm
14:19 10.4 °C 8.0 °C 1010.0 hPa WSW 11.1 km/h 16.9 km/h 85% 0.0 mm
14:24 10.4 °C 8.0 °C 1010.0 hPa WSW 15.4 km/h 17.2 km/h 85% 0.0 mm
14:29 10.4 °C 8.0 °C 1010.0 hPa WSW 11.6 km/h 17.2 km/h 85% 0.0 mm
14:34 10.3 °C 8.0 °C 1010.0 hPa WSW 11.9 km/h 16.9 km/h 85% 0.0 mm
14:39 10.2 °C 8.0 °C 1010.0 hPa WSW 9.7 km/h 16.9 km/h 85% 0.0 mm
14:44 10.1 °C 8.0 °C 1010.0 hPa SW 10.5 km/h 14.3 km/h 85% 0.0 mm
14:49 10.1 °C 8.0 °C 1010.0 hPa WSW 7.9 km/h 14.0 km/h 85% 0.0 mm
14:54 10.1 °C 8.0 °C 1010.0 hPa SW 8.7 km/h 14.0 km/h 85% 0.0 mm
14:59 10.0 °C 8.0 °C 1009.0 hPa SSW 6.1 km/h 11.9 km/h 85% 0.0 mm
15:05 9.9 °C 8.0 °C 1009.0 hPa SW 9.7 km/h 15.4 km/h 85% 0.0 mm
15:10 9.9 °C 8.0 °C 1009.0 hPa WSW 11.6 km/h 15.4 km/h 85% 0.0 mm
15:15 9.8 °C 8.0 °C 1010.0 hPa WSW 11.9 km/h 15.8 km/h 85% 0.0 mm
15:20 9.8 °C 8.0 °C 1010.0 hPa WSW 11.9 km/h 17.7 km/h 85% 0.0 mm
15:25 9.7 °C 8.0 °C 1010.0 hPa SSW 9.3 km/h 17.7 km/h 85% 0.0 mm
15:30 9.7 °C 8.0 °C 1010.0 hPa SW 10.5 km/h 12.2 km/h 85% 0.0 mm
15:35 9.6 °C 8.0 °C 1010.0 hPa SW 7.9 km/h 13.0 km/h 85% 0.0 mm
15:40 9.6 °C 8.0 °C 1010.0 hPa SW 7.9 km/h 13.0 km/h 85% 0.0 mm
15:45 9.6 °C 8.0 °C 1010.0 hPa South 8.7 km/h 11.9 km/h 85% 0.0 mm
15:51 9.5 °C 8.0 °C 1010.0 hPa SW 9.7 km/h 11.6 km/h 86% 0.0 mm
15:56 9.4 °C 7.0 °C 1010.0 hPa SSW 7.9 km/h 11.6 km/h 86% 0.0 mm
16:01 9.4 °C 7.0 °C 1010.0 hPa WSW 10.5 km/h 12.2 km/h 86% 0.0 mm
16:06 9.4 °C 7.0 °C 1010.0 hPa WSW 9.3 km/h 12.6 km/h 86% 0.0 mm
16:11 9.4 °C 7.0 °C 1010.0 hPa WSW 5.8 km/h 12.6 km/h 86% 0.0 mm
16:16 9.3 °C 7.0 °C 1010.0 hPa Calm   10.5 km/h 86% 0.0 mm
16:21 9.3 °C 7.0 °C 1010.0 hPa SW 6.1 km/h 10.5 km/h 86% 0.0 mm
16:26 9.3 °C 7.0 °C 1010.0 hPa SW 2.1 km/h 10.1 km/h 86% 0.0 mm
16:31 9.3 °C 7.0 °C 1010.0 hPa Calm   10.1 km/h 86% 0.0 mm
16:36 9.3 °C 7.0 °C 1010.0 hPa SSW 9.0 km/h 12.6 km/h 86% 0.0 mm
16:41 9.2 °C 7.0 °C 1010.0 hPa WSW 9.0 km/h 12.6 km/h 86% 0.0 mm
16:46 9.2 °C 7.0 °C 1010.0 hPa SW 9.0 km/h 13.0 km/h 86% 0.0 mm
16:51 9.1 °C 7.0 °C 1010.0 hPa SW 13.0 km/h 13.0 km/h 86% 0.0 mm
16:56 9.0 °C 7.0 °C 1010.0 hPa SW 9.3 km/h 13.0 km/h 86% 0.0 mm
17:01 9.0 °C 7.0 °C 1010.0 hPa SW 8.7 km/h 13.0 km/h 86% 0.0 mm
17:06 8.9 °C 7.0 °C 1010.0 hPa SW 4.7 km/h 10.8 km/h 87% 0.0 mm
17:11 8.8 °C 7.0 °C 1010.0 hPa SW 5.8 km/h 10.1 km/h 87% 0.0 mm
17:16 8.7 °C 7.0 °C 1010.0 hPa Calm   10.8 km/h 87% 0.0 mm
17:21 8.7 °C 7.0 °C 1010.0 hPa WSW 7.9 km/h 10.8 km/h 88% 0.0 mm
17:26 8.6 °C 7.0 °C 1010.0 hPa Calm   9.7 km/h 88% 0.0 mm
17:31 8.6 °C 7.0 °C 1010.0 hPa SSW 6.4 km/h 9.7 km/h 89% 0.0 mm
17:36 8.6 °C 7.0 °C 1010.0 hPa Calm   9.7 km/h 89% 0.0 mm
17:41 8.6 °C 7.0 °C 1010.0 hPa Calm   9.7 km/h 89% 0.0 mm
17:46 8.5 °C 7.0 °C 1010.0 hPa Calm   9.7 km/h 90% 0.0 mm
17:51 8.5 °C 7.0 °C 1010.0 hPa Calm   6.9 km/h 90% 0.0 mm
17:56 8.4 °C 7.0 °C 1010.0 hPa Calm     90% 0.0 mm
18:01 8.3 °C 7.0 °C 1010.0 hPa Calm   1.4 km/h 90% 0.0 mm
18:06 8.2 °C 7.0 °C 1010.0 hPa Calm   2.6 km/h 90% 0.0 mm
18:11 8.1 °C 7.0 °C 1010.0 hPa Calm   2.6 km/h 90% 0.0 mm
18:16 7.9 °C 7.0 °C 1010.0 hPa Calm     91% 0.0 mm
18:21 7.8 °C 6.0 °C 1010.0 hPa Calm     91% 0.0 mm
18:26 7.7 °C 6.0 °C 1010.0 hPa Calm     91% 0.0 mm
18:31 7.6 °C 6.0 °C 1011.1 hPa Calm     91% 0.0 mm
18:37 7.5 °C 6.0 °C 1011.1 hPa Calm   3.5 km/h 92% 0.0 mm
18:42 7.5 °C 6.0 °C 1011.1 hPa Calm   3.5 km/h 92% 0.0 mm
18:47 7.5 °C 7.0 °C 1011.1 hPa Calm     93% 0.0 mm
18:52 7.5 °C 7.0 °C 1011.1 hPa Calm     93% 0.0 mm
18:57 7.4 °C 6.0 °C 1011.1 hPa Calm     93% 0.0 mm
19:02 7.4 °C 6.0 °C 1011.1 hPa Calm     94% 0.0 mm
19:07 7.4 °C 6.0 °C 1011.1 hPa Calm   5.5 km/h 94% 0.0 mm
19:12 7.4 °C 6.0 °C 1011.1 hPa Calm   5.5 km/h 94% 0.0 mm
19:17 7.4 °C 7.0 °C 1011.1 hPa Calm   1.8 km/h 95% 0.0 mm
19:22 7.4 °C 7.0 °C 1011.1 hPa Calm     95% 0.0 mm
19:27 7.3 °C 7.0 °C 1011.1 hPa Calm     95% 0.0 mm
19:32 7.3 °C 7.0 °C 1011.1 hPa Calm     95% 0.0 mm
19:37 7.3 °C 7.0 °C 1011.1 hPa Calm   5.5 km/h 95% 0.0 mm
19:42 7.3 °C 7.0 °C 1011.1 hPa Calm   5.5 km/h 95% 0.0 mm
19:47 7.3 °C 7.0 °C 1011.1 hPa Calm     96% 0.0 mm
19:52 7.3 °C 7.0 °C 1011.1 hPa Calm     96% 0.0 mm
19:57 7.3 °C 7.0 °C 1011.1 hPa Calm   2.6 km/h 96% 0.0 mm
20:02 7.2 °C 7.0 °C 1011.1 hPa Calm   7.6 km/h 96% 0.0 mm
20:07 7.2 °C 7.0 °C 1011.1 hPa Calm   7.6 km/h 96% 0.0 mm
20:12 7.2 °C 7.0 °C 1011.1 hPa SSW 4.3 km/h 6.4 km/h 96% 0.0 mm
20:17 7.2 °C 7.0 °C 1011.1 hPa SSW 4.7 km/h 7.9 km/h 96% 0.0 mm
20:22 7.2 °C 7.0 °C 1011.1 hPa SSW 2.1 km/h 7.9 km/h 96% 0.0 mm
20:27 7.3 °C 7.0 °C 1011.1 hPa SW 5.0 km/h 7.9 km/h 97% 0.0 mm
20:32 7.3 °C 7.0 °C 1011.1 hPa Calm   7.9 km/h 97% 0.0 mm
20:37 7.3 °C 7.0 °C 1011.1 hPa Calm   7.9 km/h 97% 0.0 mm
20:42 7.3 °C 7.0 °C 1011.1 hPa Calm   7.6 km/h 96% 0.0 mm
20:47 7.2 °C 7.0 °C 1011.1 hPa Calm   7.6 km/h 96% 0.0 mm
20:52 7.1 °C 7.0 °C 1011.1 hPa Calm   7.6 km/h 96% 0.0 mm
20:57 7.1 °C 7.0 °C 1011.1 hPa South 7.9 km/h 8.7 km/h 96% 0.0 mm
21:02 7.0 °C 7.0 °C 1012.1 hPa Calm   8.7 km/h 96% 0.0 mm
21:08 7.0 °C 7.0 °C 1012.1 hPa Calm   10.1 km/h 96% 0.0 mm
21:13 6.9 °C 7.0 °C 1012.1 hPa South 5.8 km/h 10.1 km/h 97% 0.0 mm
21:18 6.8 °C 6.0 °C 1012.1 hPa South 1.8 km/h 8.7 km/h 97% 0.0 mm
21:23 6.7 °C 6.0 °C 1012.1 hPa Calm   5.8 km/h 97% 0.0 mm
21:28 6.7 °C 6.0 °C 1012.1 hPa SSW 3.2 km/h 7.6 km/h 97% 0.0 mm
21:33 6.6 °C 6.0 °C 1011.1 hPa Calm   7.6 km/h 97% 0.0 mm
21:37 6.5 °C 6.0 °C 1011.1 hPa Calm   6.1 km/h 97% 0.0 mm
21:43 6.5 °C 6.0 °C 1011.1 hPa Calm   6.1 km/h 97% 0.0 mm
21:48 6.5 °C 6.0 °C 1011.1 hPa SSW 6.4 km/h 9.0 km/h 97% 0.0 mm
21:53 6.5 °C 7.0 °C 1011.1 hPa SSW 6.4 km/h 9.7 km/h 98% 0.0 mm
21:58 6.6 °C 7.0 °C 1011.1 hPa SSW 6.1 km/h 10.8 km/h 98% 0.0 mm
22:03 6.5 °C 7.0 °C 1010.0 hPa SSW 6.4 km/h 10.8 km/h 98% 0.0 mm
22:08 6.6 °C 7.0 °C 1010.0 hPa SW 7.6 km/h 9.7 km/h 98% 0.0 mm
22:13 6.5 °C 7.0 °C 1010.0 hPa SW 7.9 km/h 9.7 km/h 98% 0.0 mm
22:18 6.5 °C 7.0 °C 1011.1 hPa SSW 5.8 km/h 8.7 km/h 98% 0.0 mm
22:23 6.5 °C 7.0 °C 1011.1 hPa Calm   7.9 km/h 98% 0.0 mm
22:28 6.5 °C 7.0 °C 1011.1 hPa SW 5.8 km/h 6.4 km/h 98% 0.0 mm
22:33 6.5 °C 7.0 °C 1011.1 hPa Calm   6.4 km/h 98% 0.0 mm
22:38 6.5 °C 7.0 °C 1011.1 hPa SSW 7.6 km/h 7.6 km/h 98% 0.0 mm
22:43 6.5 °C 7.0 °C 1011.1 hPa SSW 6.9 km/h 10.1 km/h 98% 0.0 mm
22:48 6.4 °C 6.0 °C 1011.1 hPa South 5.5 km/h 10.1 km/h 98% 0.0 mm
22:53 6.4 °C 6.0 °C 1011.1 hPa Calm   6.9 km/h 98% 0.0 mm
22:58 6.3 °C 6.0 °C 1011.1 hPa Calm   6.4 km/h 98% 0.0 mm
23:03 6.3 °C 6.0 °C 1011.1 hPa SSW 3.2 km/h 4.3 km/h 98% 0.0 mm
23:08 6.2 °C 6.0 °C 1011.1 hPa Calm   5.8 km/h 98% 0.0 mm
23:13 6.1 °C 6.0 °C 1011.1 hPa Calm   5.8 km/h 98% 0.0 mm
23:18 6.1 °C 6.0 °C 1011.1 hPa Calm   5.8 km/h 98% 0.0 mm
23:23 6.1 °C 6.0 °C 1011.1 hPa SSW 2.6 km/h 6.1 km/h 98% 0.0 mm
23:28 6.1 °C 6.0 °C 1011.1 hPa Calm   6.1 km/h 98% 0.0 mm
23:33 6.1 °C 6.0 °C 1011.1 hPa Calm   5.5 km/h 98% 0.0 mm
23:38 6.0 °C 6.0 °C 1011.1 hPa SSW 3.5 km/h 5.5 km/h 98% 0.0 mm
23:43 6.0 °C 6.0 °C 1011.1 hPa Calm   6.4 km/h 98% 0.0 mm
23:48 5.9 °C 6.0 °C 1011.1 hPa Calm   6.4 km/h 98% 0.0 mm
23:53 5.9 °C 6.0 °C 1011.1 hPa SSW 3.5 km/h 6.4 km/h 98% 0.0 mm
23:59 5.8 °C 6.0 °C 1011.1 hPa SW 6.1 km/h 9.3 km/h 98% 0.0 mm
Données Historique de Météo Turbie

Mise a jour : 24/05/2018 15:58:13
Généré par Cumulus 1.9.4 (1099)